Regional Weather Roundup
Issued by NWS

Home | Current Version | Previous Version | Text Only | Print | Product List | Glossary On
Versions: 1 2 3 4 5 6 7 8 9 10 11 12 13 14 15 16 17 18 19 20 21 22 23 24 25 26 27 28 29 30 31 32 33 34 35 36 37 38 39 40 41 42 43 44 45 46 47 48 49 50
000
ASUS43 KFSD 101202
RWRSD

WEATHER ROUNDUP FOR SOUTH DAKOTA
NATIONAL WEATHER SERVICE SIOUX FALLS SD
700 AM CDT THU JUL 10 2014

NOTE: "FAIR" INDICATES FEW OR NO CLOUDS BELOW 12,000 FEET WITH NO
SIGNIFICANT WEATHER AND/OR OBSTRUCTIONS TO VISIBILITY.


SDZ001>005-009-010-012>017-101300-
NORTHWEST AND NORTH CENTRAL SOUTH DAKOTA

CITY           SKY/WX    TMP DP  RH WIND       PRES   REMARKS
BUFFALO          N/A     59  56  89 CALM      29.82S
FAITH            N/A     57  56  96 SE10      29.88F
MOBRIDGE       CLEAR     60  57  89 SE5       29.89F
$$

SDZ012>016-024>037-041>051-057-063-072>074-101300-
SOUTHWEST AND SOUTH CENTRAL SOUTH DAKOTA

CITY           SKY/WX    TMP DP  RH WIND       PRES   REMARKS
RAPID CTY ARPT CLOUDY    61  58  90 SE10      29.86F
PIERRE         MOCLDY    61  58  90 SE7       29.91S
CUSTER         CLOUDY    58  54  86 N5        29.99F
ELLSWORTH AFB  CLOUDY    64  59  85 SE8       29.86F
PHILIP         MOCLDY    59  57  93 SE9       29.90F
PINE RIDGE     CLOUDY    63  60  90 N6        29.98R
WINNER         PTSUNNY   64  61  90 E7        29.93F
$$

SDZ004>011-016>023-039-040-101300-
NORTHEAST SOUTH DAKOTA

CITY           SKY/WX    TMP DP  RH WIND       PRES   REMARKS
ABERDEEN       CLEAR     57  55  93 SE8       29.95S
WATERTOWN      FAIR      60  52  74 S8        29.99R
SISSETON         N/A     56  55  97 SE5       29.97S
$$

SDZ017-020-022-023-036>040-048>070-101300-
SOUTHEAST SOUTH DAKOTA

CITY           SKY/WX    TMP DP  RH WIND       PRES   REMARKS
SIOUX FALLS    FAIR      62  58  86 E5        30.00F
HURON          MOCLDY    60  57  89 SE7       29.96R
CHAMBERLAIN    CLEAR     58  57  96 SE5       29.95S
MITCHELL       PTCLDY    61  59  93 S9        29.99R
YANKTON        MOCLDY    59  57  94 E3        30.00S
$$

ABBREVIATIONS USED IN REMARKS
   TC - TEMPERATURE IN CELSIUS
  WCI - WIND CHILL INDEX
   HX - HEAT INDEX
  VSB - VISIBILITY




USA.gov is the U.S. government's official web portal to all federal, state and local government web resources and services.